Location: Arroyo de Valdeoliva
(40.1604°N, 4.9878°W)
Time: 03:28:43
(UTC+00:00)

Cosmos 2369 - Pass Details

Date: 11 December 2025
Orbit: 838 x 854 km, 71.0° (Epoch: 13 January)

Event Time Altitude Azimuth Distance (km) Brightness Sun altitude
Rises 18:20:11 0° 185° (S) 3,403 7.1 -15.9°
Reaches altitude 10° 18:22:41 10° 179° (S) 2,473 6.3 -16.3°
Maximum altitude 18:28:07 48° 107° (ESE) 1,109 3.9 -17.3°
Enters shadow 18:30:59 26° 48° (NE) 1,617 4.7 -17.8°
